RAVAN (41849 NORAD) Tracking and Keplerian Element Data

This shows tracking and keplerian element data for the satellite.

Feedback or suggestion? Click here.




ElementValue
Catalog41849
NameRAVAN
Epoch Orbit10944
Epoch Day317.25041777
Epoch Year2018
RAAN48.2118
Inclination97.9228
Eccentricity0.0008528
Argument of Perigee33.0361
Mean Anonmoly327.1392
Mean Motion14.97978673
Decay Rate5.84E-06
L11 41849U 16067B 18317.25041777 .00000584 00000-0 54693-4 0 9997
L22 41849 97.9228 48.2118 0008528 33.0361 327.1392 14.97978673109444

Live tracking and technical data element details for RAVAN (NORAD 41849). RAVAN can be tracked NOW for your location showing map with azimuth and elevation plus other details from your city location.

Track the satellite on the map from your city or location and see movement details for azimuth, elevation, latitude, longitude, range, height, and movement on the map or in text.







IsCatalogInMostPopularTable: catalog: 41849, numindb: 125
Update: records affected: 1



GetName: 41849 RAVAN

Hit Count: updated at: Wed, 14 Nov 2018 10:49:28 GMT